星链-11720 (STARLINK-11720)

导读 | 豆包AI

STARLINK-11720是美国太空探索技术公司(SpaceX)于2025年5月24日发射的星链(Starlink)低轨互联网通信卫星。星链项目旨在搭建覆盖全球的卫星宽带网络,为地面基础设施不完善的偏远地区、海洋等场景提供高速低延迟互联网接入服务。该卫星加入星链星座后,将进一步拓展全球网络覆盖范围,提升系统通信容量与服务稳定性。

基本信息
目录编号:
64131
目录名称:
STARLINK-11720
国际标识:
2025-111J
轨道中心:
EARTH
卫星名称:
星链-11720
卫星全名:
星链-11720 (STARLINK-11720)
卫星状态:
在轨 (已飞行343 天)
发射日期:
2025-05-24 UTC
国别 :
美国 (US)
星等 :
--
轨道信息
数据来源 国际轨道数据
星历时间: 2026-05-02T09:12:39+0800
9小时前
查看轨道信息
半长轴: 6734.659km
偏心率: 0.0002369
轨道倾角: 43.002°
近地点辐角 276.385°
升交点赤经 12.003°
平近点角 83.675°
近地点: 354.926km
远地点: 358.118km
周期: 91.671分钟
每日圈数: 15.708308
详细信息
固有亮度:
5
最大亮度:
2.5
卫星平台:
Starlink V1.0
覆盖范围:
全球
运营商:
太空探索技术公司
运营商所在国:
美国
制造商(研发单位):
太空探索技术公司
制造商所在国:
美国
使用方式:
暂无
卫星简介
Starlink 计划是 SpaceX 推出的全球卫星互联网项目,通过发射低轨道卫星,为全球尤其是偏远地区提供高速、低延迟的互联网服务。自 2019 年起,Starlink 已部署数千颗卫星,旨在缩小全球数字鸿沟,推动互联网普及。该项目还为军事、航空等行业提供通信支持,带来广泛经济效益。
2D轨道图
3D轨道图
轨道高度分析图
轨道倾角分析图
轨道综合分析图
查看轨道综合分析图